Regional Weather Roundup
Issued by NWS Charleston, SC

Current Version | Previous Version | Graphics & Text | Print | Product List | Glossary On
Versions: 1 2 3 4 5 6 7 8 9 10 11 12 13 14 15 16 17 18 19 20 21 22 23 24 25 26 27 28 29 30 31 32 33 34 35 36 37 38 39 40 41 42 43 44 45 46 47 48 49 50
000
ASUS42 KCHS 271927
RWRCHS
REGIONAL WEATHER ROUNDUP
NATIONAL WEATHER SERVICE CHARLESTON SC
300 PM EDT THU AUG 27 2015

NOTE: "FAIR" INDICATES FEW OR NO CLOUDS BELOW 12,000 FEET WITH NO
SIGNIFICANT WEATHER AND/OR OBSTRUCTIONS TO VISIBILITY.

NOT ALL STATIONS ARE QUALITY CONTROLLED BY THE NATIONAL
WEATHER SERVICE. USE DATA WITH CAUTION...ESPECIALLY
DEWPOINT OBSERVATIONS.

SCZ027-030-031-034>040-042>050-272000-
...SOUTHEAST SOUTH CAROLINA...

CITY           SKY/WX    TMP DP  RH WIND       PRES   REMARKS
N CHARLESTON   CLOUDY    80  71  74 CALM      29.98F
WATERFRONT PRK   N/A     84  73  69 VRB2      29.97S HX  90
MOUNT PLEASANT FAIR      84  73  70 CALM      29.98F HX  91
JOHNS ISLAND   FAIR      84  72  65 CALM      29.97F
PINOPOLIS        N/A     82  73  74 N5        29.94R
MONCKS CORNER  FAIR      81  72  74 CALM      29.98F
SUMMERVILLE    FAIR      81  73  78 N5        30.00F
BEAUFORT MCAS  CLOUDY    78  74  87 N6        29.98F
BEAUFORT ARPT  FAIR      75  73  94 CALM      29.97F FOG
HILTON HEAD IS CLOUDY    79  77  94 NE5       29.98
WALTERBORO     CLOUDY    81  72  74 NE6       30.00F
ALLENDALE      FAIR      84  73  70 VRB5      29.97F HX  91

...SOUTHERN MIDLANDS AND PEE DEE...

CITY           SKY/WX    TMP DP  RH WIND       PRES   REMARKS
GEORGETOWN     NOT AVBL
KINGSTREE      NOT AVBL
ORANGEBURG     MOSUNNY   85  69  58 E8        30.00F
BARNWELL       FAIR      88  72  58 E10       29.99F HX  94
AIKEN          FAIR      82  64  54 E6        30.04F
MANNING        MOCLDY    81  70  69 NE6       30.00F
COLUMBIA       MOSUNNY   88  66  48 E12       30.00F HX  90
SUMTER         MOSUNNY   83  69  62 NE8       30.00F
FLORENCE       CLOUDY    82  69  64 E8        30.02S
MYRTLE BEACH   PTSUNNY   79  72  78 NE14        N/A
N MYRTLE BEACH CLOUDY    82  72  71 NE6       30.00F

$$

GAZ063-065-086>088-099>101-113>116-118-119-134>141-150-272000-
...SOUTHEAST GEORGIA...

CITY           SKY/WX    TMP DP  RH WIND       PRES   REMARKS
SAVANNAH ARPT  TSTM      76  70  82 E8        29.98R
HUNTER AAF     MOSUNNY   77  77 100 NE6       29.93F THUNDER
FORT STEWART   MOSUNNY   82  71  70 CALM      29.91F
STATESBORO     MOSUNNY   87  76  71 NE9       29.95  HX  97
SYLVANIA       PTCLDY    87  77  71 E10G16    29.97F HX  98
CLAXTON        NOT AVBL

...CSRA...CENTRAL AND FAR SOUTHEAST GEORGIA...

CITY           SKY/WX    TMP DP  RH WIND       PRES   REMARKS
THOMSON        PTSUNNY   87  72  61 NE7       30.04F HX  92
AUGUSTA-BUSH   MOSUNNY   87  69  54 NE14      29.98F HX  91
AUGUSTA-DANIEL MOSUNNY   86  68  54 E14       30.01F
SWAINSBORO     FAIR      91  72  52 NE10      29.96F HX  98
VIDALIA        MOSUNNY   90  66  45 NE3       29.94F HX  92
EASTMAN        FAIR      92  64  39 E7        29.97S HX  93
HAZLEHURST     FAIR      92  62  36 E3        29.92F HX  92
ALMA           MOSUNNY   92  64  39 VRB3      29.93F HX  93
WAYCROSS       SUNNY     93  70  47 CALM      29.92F HX  99
JESUP          CLOUDY    90  73  58 SE6       29.93S HX  98
BAXLEY         FAIR      93  64  38 N8        29.92F HX  95
BRUNSWICK      MOSUNNY   88  72  58 E12       29.95S HX  94
SAINT SIMONS   MOSUNNY   85  72  65 SE10      29.95S HX  91

$$

SCZ027-028-034-036>038-045-046-048>050-GAZ119-141-272000-
...LAKE AND SUPPLEMENTAL COASTAL OBSERVATIONS...

STATION/POSITION TIME  TEMP    WIND        PRES    WAVE   SWELL
                       AIR SEA DIR/SP/G            HT/PER HT/PER/DIR
                 (UTC) (F)     (DEG/KT/KT) (MB)    (FT/S) (FT/S/D)
UPR LAKE MARION  NOT AVBL
WINYAH BAY       1845   80      60/ 11     1015.0S
LAKE MURRAY      1800   81      40/  4/  7 1016.3F
ACE BASIN NERRS  NOT AVBL
FORT PULASKI     1900   73     240/  3/  5   N/A
SAPELO ISLAND    1900   92     140/  7     1014.0S

$$

ANZ835-935-AMZ111-154-330-350-352-354-370-450-454-472-272000-
...C-MAN AND BUOY OBSERVATIONS...

STATION/POSITION TIME  TEMP    WIND        PRES    WAVE   SWELL
                       AIR SEA DIR/SP/G            HT/PER HT/PER/DIR
                 (UTC) (F)     (DEG/KT/KT) (MB)    (FT/S) (FT/S/D)
BUOY 41004       1850   81 85  350/  6/  8 1014.9F   3/10   3/10
BUOY 41008       1850   83 86  140/ 10/ 14 1014.5F   3/10   2/110/10
FOLLY BEACH CMAN 1900   82     120/  4/  5 1015.6F
CAPERS NEARSHORE 1808   80      CALM  /  4 1016.0S
FRIPP NEARSHORE  1800   83     150/  6/ 12 1015.5


STATION/POSITION TIME  TEMP    WIND        PRES    WAVE   SWELL
                       AIR SEA DIR/SP/G            HT/PER HT/PER/DIR
                 (UTC) (F)     (DEG/KT/KT) (MB)    (FT/S) (FT/S/D)
5E ST. MARYS GA  1821      87                N/A     2/10   2/100/11
FRYING PAN BUOY  1850   79 81  330/  4/  6 1015.9F
BUOY 41025       1850   77 82  100/ 12/ 16 1016.3R   5/ 9   3/110/ 9
CAPE LOOKOUT NC  1900   79      40/ 20/ 23 1015.7S
BUOY 41002       1850   79 84  120/ 10/ 12 1015.1F   3/ 9   3/140/ 9
BUOY 41010       1820   74 85  170/  4/  8 1016.3R
ST AUGUSTINE FL  1900   82 87  130/  8/  9 1014.8F


$$



USA.gov is the U.S. government's official web portal to all federal, state and local government web resources and services.